Time,TemperatureF,DewpointF,PressureIn,WindDirection,WindDirectionDegrees,WindSpeedMPH,WindSpeedGustMPH,Humidity,HourlyPrecipIn,Conditions,Clouds,dailyrainin,SolarRadiationWatts/m^2,SoftwareType,DateUTC
2013-07-29 00:02:00,58.0,31.0,-100.00,SW,222,6.0,9.0,36,0.00,,,0.00,0.000000,,2013-07-29 07:02:00,
2013-07-29 00:12:00,58.0,31.0,-100.00,SW,222,6.0,9.0,36,0.00,,,0.00,0.000000,,2013-07-29 07:12:00,
2013-07-29 00:43:00,57.0,34.0,-100.00,SSW,208,7.0,10.0,41,0.00,,,0.00,0.000000,,2013-07-29 07:43:00,
2013-07-29 00:53:00,57.0,34.0,-100.00,SSW,208,7.0,10.0,41,0.00,,,0.00,0.000000,,2013-07-29 07:53:00,
2013-07-29 01:02:00,57.0,34.0,-100.00,SSW,208,7.0,10.0,41,0.00,,,0.00,0.000000,,2013-07-29 08:02:00,
2013-07-29 01:12:00,57.0,34.0,-100.00,SSW,208,7.0,10.0,41,0.00,,,0.00,0.000000,,2013-07-29 08:12:00,
2013-07-29 01:42:00,55.0,32.0,-100.00,South,176,7.0,12.0,42,0.00,,,0.00,0.000000,,2013-07-29 08:42:00,
2013-07-29 01:52:00,55.0,32.0,-100.00,South,176,7.0,12.0,42,0.00,,,0.00,0.000000,,2013-07-29 08:52:00,
2013-07-29 02:02:00,55.0,32.0,-100.00,South,176,7.0,12.0,42,0.00,,,0.00,0.000000,,2013-07-29 09:02:00,
2013-07-29 02:12:00,55.0,32.0,-100.00,South,176,7.0,12.0,42,0.00,,,0.00,0.000000,,2013-07-29 09:12:00,
2013-07-29 02:33:00,54.0,31.0,-100.00,SSW,193,4.0,9.0,41,0.00,,,0.00,0.000000,,2013-07-29 09:33:00,
2013-07-29 02:43:00,54.0,31.0,-100.00,SSW,193,4.0,9.0,41,0.00,,,0.00,0.000000,,2013-07-29 09:43:00,
2013-07-29 02:53:00,54.0,31.0,-100.00,SSW,193,4.0,9.0,41,0.00,,,0.00,0.000000,,2013-07-29 09:53:00,
2013-07-29 03:02:00,54.0,31.0,-100.00,SSW,193,4.0,9.0,41,0.00,,,0.00,0.000000,,2013-07-29 10:02:00,
2013-07-29 03:12:00,54.0,31.0,-100.00,SSW,193,4.0,9.0,41,0.00,,,0.00,0.000000,,2013-07-29 10:12:00,
2013-07-29 03:48:00,51.0,31.0,-100.00,SE,146,5.0,7.0,46,0.00,,,0.00,0.000000,,2013-07-29 10:48:00,
2013-07-29 03:55:00,51.0,31.0,-100.00,SE,146,5.0,7.0,46,0.00,,,0.00,0.000000,,2013-07-29 10:55:00,
2013-07-29 04:03:00,51.0,31.0,-100.00,SE,146,5.0,7.0,46,0.00,,,0.00,0.000000,,2013-07-29 11:03:00,
2013-07-29 04:12:00,51.0,31.0,-100.00,SE,146,5.0,7.0,46,0.00,,,0.00,0.000000,,2013-07-29 11:12:00,
2013-07-29 04:47:00,53.0,29.0,-100.00,SE,143,5.0,8.0,39,0.00,,,0.00,0.000000,,2013-07-29 11:47:00,
2013-07-29 04:58:00,53.0,29.0,-100.00,SE,143,5.0,8.0,39,0.00,,,0.00,0.000000,,2013-07-29 11:58:00,
2013-07-29 05:04:00,53.0,29.0,-100.00,SE,143,5.0,8.0,39,0.00,,,0.00,0.000000,,2013-07-29 12:04:00,
2013-07-29 05:12:00,53.0,29.0,-100.00,SE,143,5.0,8.0,39,0.00,,,0.00,0.000000,,2013-07-29 12:12:00,
2013-07-29 05:56:00,52.0,30.0,-100.00,SE,132,5.0,8.0,43,0.00,,,0.00,0.000000,,2013-07-29 12:56:00,
2013-07-29 06:02:00,52.0,30.0,-100.00,SE,132,5.0,8.0,43,0.00,,,0.00,0.000000,,2013-07-29 13:02:00,
2013-07-29 06:12:00,52.0,30.0,-100.00,SE,132,5.0,8.0,43,0.00,,,0.00,0.000000,,2013-07-29 13:12:00,
2013-07-29 06:45:00,55.0,32.0,-100.00,SE,126,6.0,9.0,41,0.00,,,0.00,8.000000,,2013-07-29 13:45:00,
2013-07-29 09:12:00,65.0,35.0,-100.00,SW,230,3.0,6.0,33,0.00,,,0.00,326.000000,,2013-07-29 16:12:00,
2013-07-29 09:47:00,66.0,34.0,-100.00,North,11,5.0,8.0,31,0.00,,,0.00,531.000000,,2013-07-29 16:47:00,
2013-07-29 09:57:00,66.0,34.0,-100.00,North,11,5.0,8.0,31,0.00,,,0.00,531.000000,,2013-07-29 16:57:00,
2013-07-29 10:12:00,66.0,34.0,-100.00,North,11,5.0,8.0,31,0.00,,,0.00,531.000000,,2013-07-29 17:12:00,
2013-07-29 10:45:00,70.0,35.0,-100.00,North,355,7.0,10.0,28,0.00,,,0.00,737.000000,,2013-07-29 17:45:00,
2013-07-29 10:58:00,70.0,35.0,-100.00,North,355,7.0,10.0,28,0.00,,,0.00,737.000000,,2013-07-29 17:58:00,
2013-07-29 11:12:00,70.0,35.0,-100.00,North,355,7.0,10.0,28,0.00,,,0.00,737.000000,,2013-07-29 18:12:00,
2013-07-29 11:47:00,73.0,35.0,-100.00,NW,313,8.0,12.0,25,0.00,,,0.00,874.000000,,2013-07-29 18:47:00,
2013-07-29 11:57:00,73.0,35.0,-100.00,NW,313,8.0,12.0,25,0.00,,,0.00,874.000000,,2013-07-29 18:57:00,
2013-07-29 12:02:00,73.0,35.0,-100.00,NW,313,8.0,12.0,25,0.00,,,0.00,874.000000,,2013-07-29 19:02:00,
2013-07-29 12:12:00,73.0,35.0,-100.00,NW,313,8.0,12.0,25,0.00,,,0.00,874.000000,,2013-07-29 19:12:00,
2013-07-29 12:48:00,74.0,34.0,-100.00,WNW,300,6.0,13.0,23,0.00,,,0.00,943.000000,,2013-07-29 19:48:00,
2013-07-29 13:04:00,74.0,34.0,-100.00,WNW,300,6.0,13.0,23,0.00,,,0.00,943.000000,,2013-07-29 20:04:00,
2013-07-29 13:12:00,74.0,34.0,-100.00,WNW,300,6.0,13.0,23,0.00,,,0.00,943.000000,,2013-07-29 20:12:00,
2013-07-29 13:48:00,78.0,34.0,-100.00,NNW,328,6.0,15.0,20,0.00,,,0.00,1054.000000,,2013-07-29 20:48:00,
2013-07-29 13:58:00,78.0,34.0,-100.00,NNW,328,6.0,15.0,20,0.00,,,0.00,1054.000000,,2013-07-29 20:58:00,
2013-07-29 14:12:00,78.0,34.0,-100.00,NNW,328,6.0,15.0,20,0.00,,,0.00,1054.000000,,2013-07-29 21:12:00,
2013-07-29 14:49:00,79.0,32.0,-100.00,NW,304,8.0,16.0,18,0.00,,,0.00,1029.000000,,2013-07-29 21:49:00,
2013-07-29 14:59:00,79.0,32.0,-100.00,NW,304,8.0,16.0,18,0.00,,,0.00,1029.000000,,2013-07-29 21:59:00,
2013-07-29 15:12:00,79.0,32.0,-100.00,NW,304,8.0,16.0,18,0.00,,,0.00,1029.000000,,2013-07-29 22:12:00,
2013-07-29 15:45:00,78.0,30.0,-100.00,North,352,9.0,19.0,17,0.00,,,0.00,862.000000,,2013-07-29 22:45:00,
2013-07-29 15:55:00,78.0,30.0,-100.00,North,352,9.0,19.0,17,0.00,,,0.00,862.000000,,2013-07-29 22:55:00,
2013-07-29 16:04:00,78.0,30.0,-100.00,North,352,9.0,19.0,17,0.00,,,0.00,862.000000,,2013-07-29 23:04:00,
2013-07-29 16:12:00,78.0,30.0,-100.00,North,352,9.0,19.0,17,0.00,,,0.00,862.000000,,2013-07-29 23:12:00,
2013-07-29 16:46:00,79.0,29.0,-100.00,NW,306,10.0,15.0,16,0.00,,,0.00,536.000000,,2013-07-29 23:46:00,
2013-07-29 17:03:00,79.0,29.0,-100.00,NW,306,10.0,15.0,16,0.00,,,0.00,536.000000,,2013-07-30 00:03:00,
2013-07-29 17:12:00,79.0,29.0,-100.00,NW,306,10.0,15.0,16,0.00,,,0.00,536.000000,,2013-07-30 00:12:00,
2013-07-29 17:55:00,77.0,29.0,-100.00,WSW,255,8.0,16.0,17,0.00,,,0.00,360.000000,,2013-07-30 00:55:00,
2013-07-29 18:04:00,77.0,29.0,-100.00,WSW,255,8.0,16.0,17,0.00,,,0.00,360.000000,,2013-07-30 01:04:00,
2013-07-29 18:12:00,77.0,29.0,-100.00,WSW,255,8.0,16.0,17,0.00,,,0.00,360.000000,,2013-07-30 01:12:00,
2013-07-29 18:46:00,76.0,29.0,-100.00,West,271,10.0,16.0,18,0.00,,,0.00,243.000000,,2013-07-30 01:46:00,
2013-07-29 19:04:00,76.0,29.0,-100.00,West,271,10.0,16.0,18,0.00,,,0.00,243.000000,,2013-07-30 02:04:00,
2013-07-29 19:12:00,76.0,29.0,-100.00,West,271,10.0,16.0,18,0.00,,,0.00,243.000000,,2013-07-30 02:12:00,
2013-07-29 19:46:00,75.0,27.0,-100.00,WNW,291,6.0,14.0,17,0.00,,,0.00,136.000000,,2013-07-30 02:46:00,
2013-07-29 19:55:00,75.0,27.0,-100.00,WNW,291,6.0,14.0,17,0.00,,,0.00,136.000000,,2013-07-30 02:55:00,
2013-07-29 20:04:00,75.0,27.0,-100.00,WNW,291,6.0,14.0,17,0.00,,,0.00,136.000000,,2013-07-30 03:04:00,
2013-07-29 20:12:00,75.0,27.0,-100.00,WNW,291,6.0,14.0,17,0.00,,,0.00,136.000000,,2013-07-30 03:12:00,
2013-07-29 20:54:00,71.0,28.0,-100.00,WNW,295,15.0,22.0,20,0.00,,,0.00,40.000000,,2013-07-30 03:54:00,
2013-07-29 21:02:00,71.0,28.0,-100.00,WNW,295,15.0,22.0,20,0.00,,,0.00,40.000000,,2013-07-30 04:02:00,
2013-07-29 21:33:00,68.0,32.0,-100.00,NNW,341,9.0,22.0,26,0.00,,,0.00,2.000000,,2013-07-30 04:33:00,
2013-07-29 21:43:00,68.0,32.0,-100.00,NNW,341,9.0,22.0,26,0.00,,,0.00,2.000000,,2013-07-30 04:43:00,
2013-07-29 21:53:00,68.0,32.0,-100.00,NNW,341,9.0,22.0,26,0.00,,,0.00,2.000000,,2013-07-30 04:53:00,
2013-07-29 22:02:00,68.0,32.0,-100.00,NNW,341,9.0,22.0,26,0.00,,,0.00,2.000000,,2013-07-30 05:02:00,
2013-07-29 22:11:00,68.0,32.0,-100.00,NNW,341,9.0,22.0,26,0.00,,,0.00,2.000000,,2013-07-30 05:11:00,
2013-07-29 22:45:00,66.0,32.0,-100.00,NW,304,7.0,11.0,28,0.00,,,0.00,0.000000,,2013-07-30 05:45:00,
2013-07-29 22:52:00,66.0,32.0,-100.00,NW,304,7.0,11.0,28,0.00,,,0.00,0.000000,,2013-07-30 05:52:00,
2013-07-29 23:02:00,66.0,32.0,-100.00,NW,304,7.0,11.0,28,0.00,,,0.00,0.000000,,2013-07-30 06:02:00,
2013-07-29 23:11:00,66.0,32.0,-100.00,NW,304,7.0,11.0,28,0.00,,,0.00,0.000000,,2013-07-30 06:11:00,
2013-07-29 23:43:00,63.0,31.0,-100.00,WNW,288,6.0,12.0,30,0.00,,,0.00,0.000000,,2013-07-30 06:43:00,
2013-07-29 23:53:00,63.0,31.0,-100.00,WNW,288,6.0,12.0,30,0.00,,,0.00,0.000000,,2013-07-30 06:53:00,